Regional Weather Roundup
Issued by NWS Kansas City/Pleasant Hill, MO

Home | Current Version | Previous Version | Graphics & Text | Print | Product List | Glossary Off
Versions: 1 2 3 4 5 6 7 8 9 10 11 12 13 14 15 16 17 18 19 20 21 22 23 24 25 26 27 28 29 30 31 32 33 34 35 36 37 38 39 40 41 42 43 44 45 46 47 48 49 50

000
ASUS43 KEAX 180210
RWREAX

WEATHER ROUNDUP FOR EASTERN KANSAS AND NORTHWEST MISSOURI
NATIONAL WEATHER SERVICE KANSAS CITY/PLEASANT HILL MO
800 PM CST FRI NOV 17 2017

KSZ040-057-103>105-MOZ028-029-037-043-180300-
...KANSAS CITY METROPOLITAN AREA...

CITY           SKY/WX    TMP DP  RH WIND       PRES   REMARKS
K.C. INTL      CLOUDY    61  59  93 S9        29.48S
K.C. DOWNTOWN  PTCLDY    64  58  80 SW6       29.47F
LEES SUMMIT    PTCLDY    64  61  90 S10       29.49F
OLATHE - IXD   MOCLDY    62  59  90 S6        29.49S
OLATHE - OJC   CLOUDY    59  58  96 S5        29.48F
LAWRENCE       CLOUDY    57  56  96 SE5       29.47F

$$

MOZ001>008-011>017-020>025-030>033-038>040-044>046-053-054-180300-
...NORTHERN AND CENTRAL MISSOURI...

CITY           SKY/WX    TMP DP  RH WIND       PRES   REMARKS
ST. JOSEPH     CLOUDY    52  51  97 NE5       29.48S FOG
MOSBY          CLOUDY    57  55  94 CALM      29.48S
WARRENSBURG    CLEAR     61  55  82 SE6       29.50S
WHITEMAN AFB   CLEAR     62  58  86 S12       29.47F
CLINTON        PTCLDY    61  57  88 MISG      29.53F
SEDALIA        PTCLDY    65  61  87 S14       29.52F
WARSAW         NOT AVBL
CHILLICOTHE      N/A     57  56  96 CALM      29.52F
KIRKSVILLE     MOCLDY    54  53  97 SE5       29.54F

$$

MOZ041-047>049-056>058-063>065-088>090-097-180300-
...EASTERN AND SOUTHERN MISSOURI...

CITY           SKY/WX    TMP DP  RH WIND       PRES   REMARKS
ST. LOUIS INTL CLOUDY    56  50  80 S15       29.64F
SPIRIT OF STL  MOCLDY    59  54  83 S8        29.62F
COLUMBIA       CLEAR     62  58  86 S14       29.56F
JEFFERSON CITY CLEAR     64  57  78 SE7       29.56F
ROLLA          CLOUDY    61  59  93 S15       29.62F
OSAGE BEACH    CLOUDY    65  59  81 S12       29.58F
SPRINGFIELD    MOCLDY    65  61  87 S15       29.60S
BRANSON        PTCLDY    66  59  77 S13G18    29.65F
JOPLIN         MOCLDY    70  63  78 S16G26    29.55F
WEST PLAINS    CLOUDY    66  60  81 S12       29.68S

$$

IAZ060-094-KSZ022-034>040-054-083-096-NEZ052-066-093-180300-
...KANSAS...SOUTHEAST NEBRASKA AND IOWA...

CITY           SKY/WX    TMP DP  RH WIND       PRES   REMARKS
TOPEKA         CLOUDY    58  55  90 CALM      29.46F
MANHATTAN      PTCLDY    55  48  77 CALM      29.47S
EMPORIA        PTCLDY    63  50  62 S12       29.47S
CHANUTE        CLOUDY    70  56  61 S10       29.50F
WICHITA        CLOUDY    65  50  58 S10       29.46F
OMAHA          MOCLDY    48  40  73 N9        29.55S
LINCOLN        CLOUDY    48  36  63 N14       29.57R
FALLS CITY     MOCLDY    55  54  96 E8        29.48S FOG
LAMONI         FOG       54  54 100 E3        29.52F VSB 1/4
DES MOINES     DRZL/FOG  50  49  96 N6        29.56R VSB 1/4

$$




USA.gov is the U.S. government's official web portal to all federal, state and local government web resources and services.